EW7061 Weather Reports


time (UTC)temp
F
wind
direction
speed
knots
gust
knots
rain 1hr
in
rain 24hr
in
rain mn
in
humidity
%
barometer
mb
20260508004503 52 0 0.0 0.0 0.00 0.25 0.23 80 1006.7
20260508003603 52 257 0.0 0.9 0.00 0.31 0.23 79 1006.3
20260508002917 53 0 0.0 0.0 0.00 0.33 0.23 79 1006.1
20260508001803 53 242 0.9 3.5 0.00 0.35 0.23 78 1006.2
20260508000903 54 220 0.0 0.9 0.00 0.37 0.23 78 1006.2
20260508000219 54 220 0.0 0.9 0.00 0.37 0.23 78 1006.1
20260507235616 54 220 0.0 1.7 0.00 0.38 0.23 78 1006.1
20260507234503 55 220 0.0 2.6 0.00 0.39 0.23 77 1006.2
20260507233603 55 220 0.9 2.6 0.00 0.40 0.23 76 1006.1
20260507232703 56 220 1.7 3.5 0.00 0.41 0.23 74 1006.2
20260507231803 56 235 2.6 7.0 0.00 0.43 0.23 72 1006.1
20260507230903 56 238 2.6 7.8 0.00 0.46 0.23 70 1006.0
20260507230216 57 220 2.6 7.8 0.00 0.47 0.23 70 1006.1
20260507225618 57 215 2.6 5.2 0.00 0.47 0.23 69 1005.9
20260507224503 57 224 2.6 7.8 0.00 0.48 0.23 68 1005.9
20260507223603 57 220 2.6 7.8 0.00 0.48 0.23 69 1005.7
20260507222918 57 230 3.5 10.4 0.00 0.48 0.23 71 1005.6
20260507221803 58 214 4.3 9.6 0.00 0.48 0.23 69 1005.8
20260507220903 60 209 3.5 11.3 0.00 0.48 0.23 67 1005.8
20260507220218 60 218 4.3 10.4 0.00 0.48 0.23 69 1005.9
20260507215617 60 224 4.3 10.4 0.00 0.48 0.23 68 1005.9
20260507214932 60 204 3.5 8.7 0.00 0.48 0.23 70 1005.9
20260507213816 58 226 3.5 7.8 0.00 0.48 0.23 73 1005.8
20260507212703 57 229 3.5 6.1 0.00 0.48 0.23 79 1005.9
20260507211803 57 228 2.6 7.0 0.00 0.48 0.23 81 1005.7
20260507210903 57 234 2.6 7.0 0.00 0.48 0.23 82 1005.6
20260507210218 57 222 2.6 6.1 0.00 0.48 0.23 82 1005.7
20260507205617 57 233 2.6 6.1 0.00 0.48 0.23 81 1005.7
20260507204503 58 197 3.5 7.0 0.00 0.48 0.23 80 1005.8
20260507203818 58 199 3.5 7.8 0.00 0.48 0.23 78 1005.6
20260507202703 61 194 2.6 6.1 0.00 0.48 0.23 76 1005.8
20260507201803 62 175 3.5 7.0 0.00 0.48 0.23 76 1005.5
20260507200903 62 175 3.5 7.8 0.00 0.48 0.23 76 1005.6
20260507200003 60 207 4.3 9.6 0.00 0.48 0.23 79 1005.8
20260507195832 60 212 3.5 9.6 0.00 0.48 0.23 78 1005.7
20260507194503 60 195 4.3 8.7 0.00 0.48 0.23 76 1005.9
20260507193603 59 216 5.2 8.7 0.00 0.48 0.23 77 1006.0
20260507192703 60 212 4.3 7.8 0.00 0.48 0.23 78 1006.2
20260507191803 61 196 2.6 8.7 0.00 0.48 0.23 77 1006.2
20260507190903 62 197 2.6 9.6 0.00 0.48 0.23 77 1006.3
20260507190217 60 205 3.5 7.8 0.00 0.48 0.23 78 1006.5
20260507185403 60 208 3.5 9.6 0.00 0.48 0.23 76 1006.7
20260507184718 60 211 4.3 9.6 0.00 0.48 0.23 76 1006.6
20260507184032 60 217 4.3 9.6 0.00 0.48 0.23 76 1006.8
20260507182703 61 208 3.5 9.6 0.00 0.48 0.23 74 1006.8
20260507182018 61 210 3.5 7.8 0.00 0.48 0.23 72 1006.8
20260507180903 60 211 3.5 7.8 0.00 0.48 0.23 75 1006.9
20260507180216 60 198 3.5 8.7 0.00 0.48 0.23 74 1007.0
20260507175618 60 203 4.3 9.6 0.00 0.48 0.23 74 1007.1
20260507174503 60 215 3.5 9.6 0.00 0.48 0.23 73 1007.1
20260507173817 61 196 3.5 7.8 0.00 0.48 0.23 70 1007.2
20260507172918 63 281 2.6 9.6 0.00 0.48 0.23 61 1007.1
20260507171803 63 312 2.6 7.8 0.00 0.48 0.23 59 1007.0
20260507170903 63 341 3.5 8.7 0.00 0.48 0.23 57 1007.0
20260507170003 62 305 3.5 10.4 0.00 0.48 0.23 59 1007.3
20260507165403 61 290 3.5 8.7 0.00 0.48 0.23 61 1007.4
20260507164503 61 298 3.5 8.7 0.00 0.48 0.23 61 1007.4
20260507163816 61 316 2.6 7.8 0.00 0.48 0.23 65 1007.4
20260507162703 60 295 3.5 8.7 0.00 0.48 0.23 69 1007.4
20260507161803 60 312 3.5 9.6 0.00 0.48 0.23 71 1007.6
20260507160903 60 319 2.6 9.6 0.00 0.48 0.23 72 1007.5
20260507160003 60 315 2.6 8.7 0.00 0.48 0.23 76 1007.7
20260507155403 59 294 2.6 8.7 0.00 0.48 0.23 79 1007.8
20260507154716 58 318 2.6 7.8 0.01 0.48 0.23 78 1007.7
20260507153603 56 339 3.5 9.6 0.01 0.48 0.23 83 1007.9
20260507152703 55 305 2.6 6.1 0.01 0.48 0.23 85 1008.0
20260507151803 54 318 2.6 8.7 0.01 0.48 0.23 87 1008.0
20260507150903 53 312 3.5 7.8 0.01 0.48 0.23 88 1007.8
20260507150003 53 335 3.5 8.7 0.01 0.48 0.23 90 1007.8
20260507145403 52 335 1.7 8.7 0.01 0.48 0.23 90 1007.7
20260507144716 52 328 2.6 8.7 0.00 0.47 0.22 91 1008.1
20260507143603 51 350 2.6 8.7 0.00 0.47 0.22 91 1008.0
20260507142703 51 317 1.7 6.1 0.00 0.47 0.22 92 1008.1
20260507141803 50 284 1.7 3.5 0.00 0.47 0.22 92 1008.2
20260507141118 50 332 2.6 7.8 0.00 0.47 0.22 92 1008.1
20260507140003 50 333 3.5 8.7 0.00 0.47 0.22 92 1008.2
20260507135403 49 338 2.6 7.0 0.00 0.47 0.22 92 1008.0
20260507134503 49 334 1.7 7.0 0.01 0.47 0.22 92 1007.9
20260507133603 49 338 2.6 7.0 0.01 0.47 0.22 92 1007.5
20260507132703 49 340 1.7 6.1 0.01 0.47 0.22 92 1007.7
20260507132018 49 345 1.7 6.1 0.01 0.47 0.22 92 1007.8
20260507130903 49 317 2.6 8.7 0.01 0.47 0.22 92 1008.0
20260507130216 49 316 2.6 7.0 0.01 0.47 0.22 92 1008.1
20260507125403 49 340 2.6 7.8 0.02 0.47 0.22 92 1008.0
20260507124503 50 314 2.6 7.8 0.01 0.46 0.21 92 1008.2
20260507123817 49 337 2.6 7.8 0.01 0.46 0.21 92 1007.9
20260507122703 50 325 2.6 8.7 0.01 0.46 0.21 92 1007.9
20260507121803 50 321 2.6 10.4 0.01 0.46 0.21 92 1008.0
20260507121332 50 332 2.6 7.0 0.02 0.46 0.21 92 1007.9
20260507120004 50 330 2.6 7.0 0.03 0.46 0.21 92 1007.7
20260507115403 50 322 2.6 7.0 0.02 0.45 0.20 92 1008.0
20260507114503 50 312 2.6 7.0 0.02 0.45 0.20 92 1008.2
20260507113603 50 328 3.5 8.7 0.02 0.45 0.20 92 1007.9
20260507112918 50 335 3.5 11.3 0.02 0.45 0.20 92 1007.3
20260507112017 50 351 2.6 9.6 0.03 0.45 0.20 92 1007.4
20260507110903 50 338 3.5 8.7 0.02 0.44 0.19 92 1007.2
20260507110003 50 338 3.5 8.7 0.05 0.43 0.18 92 1007.6
20260507105617 50 341 3.5 9.6 0.07 0.43 0.18 92 1007.3
20260507104504 50 349 4.3 13.0 0.10 0.43 0.18 92 1007.0
20260507103603 50 352 3.5 9.6 0.16 0.43 0.18 92 1007.0
20260507102703 50 347 3.5 7.8 0.17 0.43 0.18 92 1006.7
20260507102017 50 345 4.3 9.6 0.16 0.42 0.17 92 1006.8
20260507100903 51 348 3.5 9.6 0.16 0.42 0.17 92 1006.8
20260507100217 51 348 4.3 8.7 0.13 0.39 0.14 92 1006.4
20260507095617 52 340 3.5 8.7 0.11 0.36 0.11 92 1006.8
20260507094716 54 334 4.3 11.3 0.09 0.34 0.09 92 1006.2
20260507094033 54 328 3.5 11.3 0.05 0.30 0.05 92 1006.5
20260507092703 54 306 0.9 3.5 0.01 0.26 0.01 92 1006.1
20260507091803 54 274 0.9 6.1 0.01 0.26 0.01 92 1006.1
20260507090903 54 279 1.7 6.1 0.01 0.26 0.01 92 1006.5
20260507090217 54 275 2.6 7.8 0.01 0.26 0.01 92 1006.5
20260507085403 54 281 3.5 9.6 0.00 0.25 0.00 92 1006.9
20260507084718 54 262 2.6 7.8 0.00 0.25 0.00 92 1006.4
20260507083817 54 238 2.6 7.0 0.00 0.25 0.00 92 1006.2
20260507082917 54 236 2.6 7.0 0.00 0.25 0.00 92 1006.0
20260507082018 54 236 2.6 7.0 0.00 0.25 0.00 92 1005.8
20260507080903 54 226 2.6 11.3 0.00 0.25 0.00 92 1006.0
20260507080217 54 241 2.6 5.2 0.00 0.25 0.00 92 1006.0
20260507075403 54 235 1.7 6.1 0.00 0.25 0.00 92 1006.1
20260507074503 54 231 3.5 8.7 0.00 0.25 0.00 92 1005.9
20260507073817 54 237 2.6 8.7 0.00 0.25 0.00 92 1006.2
20260507072703 54 217 2.6 7.0 0.00 0.25 0.00 92 1006.2
20260507072018 54 232 3.5 7.0 0.00 0.25 0.00 92 1006.2
20260507071117 54 235 3.5 8.7 0.00 0.25 0.00 92 1006.6
20260507070004 55 236 3.5 8.7 0.00 0.25 0.00 92 1006.4
20260507065618 55 237 3.5 8.7 0.00 0.25 0.00 92 1006.3
20260507064717 55 242 3.5 7.8 0.00 0.25 0.00 92 1006.2
20260507063603 55 223 3.5 7.0 0.00 0.25 0.00 92 1006.6
20260507062918 55 230 2.6 7.0 0.00 0.25 0.00 92 1006.6
20260507061803 56 232 2.6 7.0 0.00 0.25 0.00 92 1006.6
20260507060903 56 236 2.6 7.8 0.00 0.25 0.00 92 1006.7
20260507060003 56 235 2.6 7.0 0.00 0.25 0.00 92 1006.6
20260507055403 56 226 3.5 7.8 0.00 0.25 0.00 92 1006.7
20260507054717 56 225 3.5 8.7 0.00 0.25 0.00 92 1007.0
20260507053603 56 226 3.5 10.4 0.00 0.25 0.00 92 1007.1
20260507053133 56 227 4.3 10.4 0.00 0.25 0.00 92 1007.2
20260507051803 56 232 4.3 11.3 0.00 0.25 0.00 92 1007.5
20260507050903 56 228 3.5 8.7 0.00 0.25 0.00 92 1007.5
20260507050003 56 236 5.2 13.9 0.00 0.25 0.00 92 1007.4
20260507045832 56 237 5.2 13.9 0.00 0.25 0.00 92 1007.5
20260507044503 56 220 5.2 11.3 0.00 0.25 0.00 92 1007.4
20260507043603 56 225 4.3 14.8 0.00 0.25 0.00 92 1007.4
20260507042703 56 221 4.3 13.0 0.00 0.25 0.00 92 1007.6
20260507041803 56 220 5.2 14.8 0.00 0.25 0.00 92 1007.8
20260507040903 56 230 4.3 9.6 0.00 0.25 0.00 92 1007.7
20260507040003 56 220 5.2 12.2 0.00 0.25 0.00 92 1007.6
20260507035403 56 219 5.2 12.2 0.00 0.25 0.25 92 1007.7
20260507034503 56 221 5.2 13.0 0.00 0.25 0.25 92 1008.0
20260507033603 56 223 5.2 13.0 0.00 0.25 0.25 92 1008.0
20260507033132 56 232 5.2 13.0 0.00 0.25 0.25 92 1008.0
20260507031803 56 219 5.2 12.2 0.00 0.25 0.25 92 1007.7
20260507031117 56 221 5.2 13.0 0.00 0.25 0.25 92 1007.6
20260507030217 56 221 5.2 11.3 0.00 0.25 0.25 92 1007.5
20260507025403 56 222 6.1 12.2 0.00 0.25 0.25 92 1007.7
20260507024503 56 217 6.1 12.2 0.00 0.25 0.25 92 1008.1
20260507023603 56 222 5.2 12.2 0.00 0.25 0.25 92 1008.3
20260507022703 56 218 6.1 13.9 0.00 0.25 0.25 92 1008.5
20260507021803 57 217 7.0 15.6 0.00 0.25 0.25 92 1008.5
20260507021117 57 226 7.0 13.9 0.00 0.25 0.25 92 1008.4
20260507020216 56 226 6.1 13.9 0.01 0.25 0.25 92 1008.4
20260507015403 56 219 7.0 13.9 0.01 0.25 0.25 92 1008.6
20260507014503 56 211 5.2 12.2 0.02 0.25 0.25 92 1008.8
20260507014032 56 211 5.2 10.4 0.04 0.25 0.25 92 1008.8
20260507012918 56 213 6.1 14.8 0.10 0.25 0.25 92 1008.6
20260507011803 57 220 5.2 13.0 0.12 0.25 0.25 92 1008.8
20260507010903 57 222 6.1 16.5 0.13 0.24 0.24 92 1008.8
20260507010003 57 213 7.0 19.1 0.13 0.24 0.24 92 1008.9
20260507005403 56 212 6.1 19.1 0.14 0.24 0.24 92 1008.8